ATLAS 5 CENTAUR DEB, 43981

Orbit data source: Space-Track

ATLAS 5 CENTAUR DEB, 43981 is space debris in HEO originally from a launch on Wed, 17 Sep 2014 UTC launched from the Air Force Eastern Test Range (AFETR). Debris objects in space refer to the collection of defunct objects orbiting the Earth. Examples of debris include non-operational satellites, rocket bodies, and fragments generated from explosions, collisions, or faulty payload assembly.

Loading next visibility...
Identifier
43981, 2014-055AL
Orbit
HEO
Country
Flag of USUS
Related business
Flag of USUnited Launch Alliance/Lockheed Martin (US)
Manufacturer
Unknown
Mission
Spacecraft
Bus & Motor
Unknown
Mass
Unknown
Launch date (UTC)
2014-09-17 (12 years ago)
Launch vehicle
Unknown
Launch site
Air Force Eastern Test Range (AFETR)
Object type
Payload
Rocket body
Debris
Shape & HBR
Unknown shape, 1.1 m
Radar Cross Section
Medium (>0.1 m² and <1 m²)

Expand to show TLE details & history
Last TLE update: 4 days ago

TLE from 4 days ago
0 ATLAS 5 CENTAUR DEB
1 43981U 14055AL  26192.88409905 -.00000103  00000-0  00000-0 0  9998
2 43981  20.0604 136.1197 5103677 171.9669 201.1956  1.78785681 51220
Epoch: 2026-07-11T21:13Z
TLE epoch observation values (Epoch: 2026-07-11T21:13:06.157Z)
Latitude
Longitude
-111.9944°
Altitude
36,507.207 km
Speed
2.165 km/s
True Right ascension
09h 04m 17s
True Declination
0° 00' 00"
Sunlit
Object was in daylight at epoch
Visualization orbit readout
Latitude
Unknown
Longitude
Unknown
Altitude
Unknown
Speed
Unknown
Apparent Right ascension
Unknown
Apparent Declination
Unknown
Sunlit
N/A
Visualization observer readout
Local Sidereal Time
05:05:21
Azimuth
Unknown
Elevation
Unknown
Doppler factor
Unknown
Orbital elements
Apogee altitude
36,935.677 km
Perigee altitude
7,663.373 km
Semi-major axis
28,677.662 km
Eccentricity
0.51037
Inclination
20.0604°
RAAN
136.1197°
Arg. of periapsis
171.9669°
True anomaly
188.04473°
Mean anomaly
201.1956°
Eccentric anomaly
194.08116°
Mean motion
0.44692 °/min
Orbital period
805.52 mins
BSTAR
0
Loading maneuver chart data...
Computing Atmospheric mass density...

Documentation

Showing up to 5 results
|